CW4713 Weather Reports


Display with metric or nautical units.
time (UTC)temp
F
wind
direction
speed
MPH
gust
MPH
rain 1hr
in
rain 24hr
in
rain mn
in
humidity
%
barometer
mb
20260902202306 56 15 6.0 14.0 0.00 0.00 0.00 53 1012.2
20260902201804 56 16 6.0 12.0 0.00 0.00 0.00 56 1012.1
20260902201305 55 1 6.0 10.0 0.00 0.00 0.00 56 1012.1
20260902200805 55 17 6.0 10.0 0.00 0.00 0.00 58 1012.0
20260902195804 55 16 6.0 12.0 0.00 0.00 0.00 60 1012.0
20260902195306 54 35 5.0 8.0 0.00 0.00 0.00 60 1012.0
20260902194804 54 356 4.0 8.0 0.00 0.00 0.00 62 1011.9
20260902194304 54 18 6.0 13.0 0.00 0.00 0.00 59 1011.8
20260902193804 54 32 4.0 9.0 0.00 0.00 0.00 64 1011.8
20260902193304 54 25 6.0 10.0 0.00 0.00 0.00 68 1011.7
20260902192804 53 24 4.0 9.0 0.00 0.00 0.00 71 1011.7
20260902192307 53 354 3.0 5.0 0.00 0.00 0.00 74 1011.7
20260902191804 52 336 3.0 5.0 0.00 0.00 0.00 76 1011.7
20260902191304 52 313 2.0 5.0 0.00 0.00 0.00 77 1011.7
20260902190804 51 323 1.0 5.0 0.00 0.00 0.00 78 1011.6
20260902190304 51 186 0.0 2.0 0.00 0.00 0.00 80 1011.6
20260902175307 43 141 0.0 0.0 0.00 0.00 0.00 94 1010.7
20260902174804 42 141 0.0 0.0 0.00 0.00 0.00 94 1010.7
20260902174304 41 141 0.0 0.0 0.00 0.00 0.00 94 1010.7
20260902173804 40 141 0.0 0.0 0.00 0.00 0.00 94 1010.6
20260902173304 40 141 0.0 0.0 0.00 0.00 0.00 94 1010.6
20260902172804 40 141 0.0 0.0 0.00 0.00 0.00 94 1010.4
20260902172308 39 141 0.0 0.0 0.00 0.00 0.00 94 1010.4
20260902171804 39 141 0.0 0.0 0.00 0.00 0.00 94 1010.3
20260902171304 38 141 0.0 0.0 0.00 0.00 0.00 94 1010.3
20260902170804 37 141 0.0 0.0 0.00 0.00 0.00 94 1010.2
20260902170304 37 141 0.0 0.0 0.00 0.00 0.00 94 1010.1
20260902165804 37 141 0.0 0.0 0.00 0.00 0.00 94 1010.2
20260902165308 36 141 0.0 0.0 0.00 0.00 0.00 94 1010.1
20260902164804 36 141 0.0 0.0 0.00 0.00 0.00 94 1010.0
20260902164304 36 141 0.0 0.0 0.00 0.00 0.00 94 1010.0
20260902163804 36 141 0.0 0.0 0.00 0.00 0.00 94 1009.9
20260902163304 35 141 0.0 0.0 0.00 0.00 0.00 93 1009.9
20260902162804 35 141 0.0 0.0 0.00 0.00 0.00 94 1009.8
20260902162307 35 141 0.0 0.0 0.00 0.00 0.00 94 1009.8
20260902161804 34 141 0.0 0.0 0.00 0.00 0.00 93 1009.8
20260902161304 34 141 0.0 0.0 0.00 0.00 0.00 93 1009.6
20260902160805 34 141 0.0 0.0 0.00 0.00 0.00 93 1009.4
20260902160304 34 141 0.0 0.0 0.00 0.00 0.00 93 1009.2
20260902155804 34 141 0.0 0.0 0.00 0.00 0.00 93 1009.1
20260902155306 34 141 0.0 0.0 0.00 0.00 0.00 93 1009.1
20260902154804 34 141 0.0 0.0 0.00 0.00 0.00 93 1009.1
20260902154304 34 141 0.0 0.0 0.00 0.00 0.00 93 1009.1
20260902153805 34 141 1.0 2.0 0.00 0.00 0.00 93 1009.0
20260902153304 34 173 1.0 2.0 0.00 0.00 0.00 93 1009.0
20260902152804 33 171 0.0 0.0 0.00 0.00 0.00 93 1009.1
20260902152307 33 171 0.0 0.0 0.00 0.00 0.00 93 1009.1
20260902151804 34 171 0.0 0.0 0.00 0.00 0.00 93 1009.0
20260902151304 34 171 0.0 0.0 0.00 0.00 0.00 93 1009.0
20260902150804 34 171 0.0 0.0 0.00 0.00 0.00 93 1008.9
20260902150305 34 171 0.0 0.0 0.00 0.00 0.00 93 1008.8
20260902145804 34 171 0.0 1.0 0.00 0.00 0.00 93 1008.9
20260902145306 34 190 2.0 3.0 0.00 0.00 0.00 93 1008.8
20260902144805 34 137 0.0 0.0 0.00 0.00 0.00 93 1008.8
20260902144305 34 137 0.0 0.0 0.00 0.00 0.00 92 1008.8
20260902143804 34 137 0.0 1.0 0.00 0.00 0.00 92 1008.7
20260902143305 34 159 0.0 1.0 0.00 0.00 0.00 92 1008.7
20260902142805 34 158 0.0 0.0 0.00 0.00 0.00 92 1008.6
20260902142306 34 158 0.0 0.0 0.00 0.00 0.00 92 1008.6
20260902141804 34 158 0.0 0.0 0.00 0.00 0.00 92 1008.6
20260902141304 34 158 0.0 0.0 0.00 0.00 0.00 92 1008.6
20260902140804 34 158 0.0 0.0 0.00 0.00 0.00 92 1008.6
20260902140305 34 158 1.0 1.0 0.00 0.00 0.00 92 1008.6
20260902135805 34 131 0.0 0.0 0.00 0.00 0.00 92 1008.5
20260902135306 34 131 0.0 0.0 0.00 0.00 0.00 92 1008.4
20260902134304 34 131 0.0 0.0 0.00 0.00 0.00 92 1008.3
20260902133804 34 131 0.0 0.0 0.00 0.00 0.00 92 1008.3
20260902133304 34 131 0.0 0.0 0.00 0.00 0.00 92 1008.3
20260902132804 34 131 0.0 0.0 0.00 0.00 0.00 92 1008.3
20260902132306 34 131 0.0 0.0 0.00 0.00 0.00 92 1008.2
20260902131804 34 131 0.0 0.0 0.00 0.00 0.00 92 1008.1
20260902131304 34 131 0.0 0.0 0.00 0.00 0.00 92 1008.1
20260902130804 34 131 0.0 2.0 0.00 0.00 0.00 91 1008.0
20260902130304 34 161 0.0 2.0 0.00 0.00 0.00 91 1008.0
20260902125804 34 158 0.0 0.0 0.00 0.00 0.00 91 1007.9
20260902125305 34 158 0.0 0.0 0.00 0.00 0.00 91 1007.9
20260902124804 34 158 0.0 0.0 0.00 0.00 0.00 91 1007.8
20260902123804 34 158 0.0 0.0 0.00 0.00 0.00 91 1007.6
20260902123304 35 158 0.0 0.0 0.00 0.00 0.00 91 1007.6
20260902122804 35 158 0.0 0.0 0.00 0.00 0.00 91 1007.5
20260902122305 35 158 0.0 0.0 0.00 0.00 0.00 91 1007.5
20260902121804 35 158 0.0 0.0 0.00 0.00 0.00 91 1007.3
20260902121304 35 158 0.0 0.0 0.00 0.00 0.00 91 1007.3
20260902120804 35 158 0.0 0.0 0.00 0.00 0.00 91 1007.4
20260902120304 35 158 0.0 0.0 0.00 0.00 0.00 90 1007.4
20260902115804 35 158 0.0 0.0 0.00 0.00 0.00 90 1007.4
20260902115307 35 158 0.0 0.0 0.00 0.00 0.00 90 1007.4
20260902114804 35 158 0.0 0.0 0.00 0.00 0.00 90 1007.4
20260902114304 35 158 0.0 0.0 0.00 0.00 0.00 90 1007.5
20260902113804 35 158 0.0 0.0 0.00 0.00 0.00 90 1007.4
20260902113304 35 158 0.0 0.0 0.00 0.00 0.00 90 1007.5
20260902112804 35 158 0.0 0.0 0.00 0.00 0.00 90 1007.5
20260902112305 35 158 0.0 0.0 0.00 0.00 0.00 90 1007.4
20260902111804 36 158 0.0 0.0 0.00 0.00 0.00 90 1007.4
20260902111304 36 158 0.0 0.0 0.00 0.00 0.00 90 1007.3
20260902110804 36 158 0.0 0.0 0.00 0.00 0.00 90 1007.3
20260902110304 36 158 0.0 0.0 0.00 0.00 0.00 90 1007.4
20260902105804 36 158 0.0 0.0 0.00 0.00 0.00 90 1007.4
20260902105306 36 158 0.0 0.0 0.00 0.00 0.00 90 1007.4
20260902104804 36 158 0.0 0.0 0.00 0.00 0.00 90 1007.4
20260902104304 36 158 0.0 0.0 0.00 0.00 0.00 89 1007.3
20260902103804 36 158 0.0 0.0 0.00 0.00 0.00 89 1007.3
20260902103304 36 158 0.0 0.0 0.00 0.00 0.00 89 1007.3
20260902102804 36 158 0.0 0.0 0.00 0.00 0.00 89 1007.3
20260902102307 36 158 0.0 0.0 0.00 0.00 0.00 89 1007.3
20260902101804 36 158 0.0 0.0 0.00 0.00 0.00 89 1007.2
20260902101304 37 158 0.0 0.0 0.00 0.00 0.00 89 1007.2
20260902100804 37 158 0.0 0.0 0.00 0.00 0.00 89 1007.2
20260902100304 37 158 0.0 0.0 0.00 0.00 0.00 89 1007.2
20260902095804 37 158 0.0 0.0 0.00 0.00 0.00 88 1007.2
20260902095306 37 158 0.0 0.0 0.00 0.00 0.00 88 1007.2
20260902094804 37 158 0.0 0.0 0.00 0.00 0.00 88 1007.3
20260902094305 37 158 0.0 0.0 0.00 0.00 0.00 88 1007.3
20260902093804 37 158 0.0 0.0 0.00 0.00 0.00 88 1007.3
20260902093305 37 158 0.0 0.0 0.00 0.00 0.00 88 1007.2
20260902092804 37 158 0.0 0.0 0.00 0.00 0.00 88 1007.3
20260902092305 37 158 0.0 0.0 0.00 0.00 0.00 88 1007.2
20260902091804 38 158 0.0 0.0 0.00 0.00 0.00 88 1007.2
20260902091304 38 158 0.0 0.0 0.00 0.00 0.00 88 1007.2
20260902090804 38 158 0.0 0.0 0.00 0.00 0.00 87 1007.3
20260902090304 38 158 0.0 0.0 0.00 0.00 0.00 87 1007.2
20260902085804 38 158 0.0 0.0 0.00 0.00 0.00 87 1007.2
20260902085306 38 158 0.0 0.0 0.00 0.00 0.00 87 1007.2
20260902084804 38 158 0.0 0.0 0.00 0.00 0.00 87 1007.3
20260902084304 38 158 0.0 0.0 0.00 0.00 0.00 87 1007.3
20260902083805 39 158 0.0 0.0 0.00 0.00 0.00 86 1007.3
20260902083304 39 158 0.0 0.0 0.00 0.00 0.00 86 1007.2
20260902082804 39 158 0.0 0.0 0.00 0.00 0.00 86 1007.2
20260902082309 39 158 0.0 0.0 0.00 0.00 0.00 86 1007.2
20260902081804 39 158 0.0 0.0 0.00 0.00 0.00 86 1007.2
20260902081304 39 158 0.0 0.0 0.00 0.00 0.00 86 1007.1
20260902080804 40 158 0.0 0.0 0.00 0.00 0.00 86 1007.1
20260902080305 40 158 0.0 0.0 0.00 0.00 0.00 85 1007.1
20260902075804 40 158 0.0 0.0 0.00 0.00 0.00 85 1007.1
20260902075306 40 158 0.0 1.0 0.00 0.00 0.00 85 1007.1
20260902074805 40 172 1.0 2.0 0.00 0.00 0.00 85 1007.0
20260902074304 41 174 0.0 0.0 0.00 0.00 0.00 85 1007.0
20260902073805 41 174 0.0 0.0 0.00 0.00 0.00 85 1007.1
20260902073304 41 174 0.0 0.0 0.00 0.00 0.00 84 1007.0
20260902072804 42 174 0.0 1.0 0.00 0.00 0.00 84 1007.0
20260902072309 42 154 0.0 1.0 0.00 0.00 0.00 84 1007.0
20260902071804 42 109 0.0 0.0 0.00 0.00 0.00 84 1007.1
20260902071304 42 109 0.0 1.0 0.00 0.00 0.00 84 1007.0
20260902070804 43 188 1.0 1.0 0.00 0.00 0.00 83 1007.1
20260902070304 43 147 0.0 0.0 0.00 0.00 0.00 83 1007.0
20260902065804 43 147 0.0 0.0 0.00 0.00 0.00 82 1007.0
20260902065306 44 147 0.0 0.0 0.00 0.00 0.00 82 1007.1
20260902064804 44 147 0.0 0.0 0.00 0.00 0.00 82 1007.0
20260902064304 44 147 0.0 0.0 0.00 0.00 0.00 82 1007.0
20260902063803 45 147 0.0 0.0 0.00 0.00 0.00 81 1007.0
20260902063304 45 147 0.0 0.0 0.00 0.00 0.00 81 1007.1
20260902062804 46 147 0.0 0.0 0.00 0.00 0.00 81 1007.1
20260902062306 46 147 0.0 0.0 0.00 0.00 0.00 80 1007.0
20260902051803 52 272 0.0 0.0 0.00 0.00 0.00 72 1006.6
20260902051304 52 272 0.0 0.0 0.00 0.00 0.00 71 1006.6
20260902050804 53 272 0.0 0.0 0.00 0.00 0.00 70 1006.7
20260902050304 53 272 0.0 0.0 0.00 0.00 0.00 69 1006.6
20260902045804 53 272 0.0 0.0 0.00 0.00 0.00 68 1006.5
20260902045306 54 272 0.0 0.0 0.00 0.00 0.00 68 1006.3
20260902044804 54 272 0.0 0.0 0.00 0.00 0.00 67 1006.3
20260902044304 54 272 0.0 0.0 0.00 0.00 0.00 67 1006.3
20260902043804 54 272 0.0 0.0 0.00 0.00 0.00 66 1006.3
20260902043304 55 272 0.0 0.0 0.00 0.00 0.00 66 1006.3
20260902042804 55 272 0.0 2.0 0.00 0.00 0.00 66 1006.3
20260902042308 55 295 0.0 0.0 0.00 0.00 0.00 65 1006.4
20260902041804 55 295 0.0 1.0 0.00 0.00 0.00 65 1006.5
20260902041304 56 285 1.0 2.0 0.00 0.00 0.00 65 1006.5
20260902040804 56 322 1.0 2.0 0.00 0.00 0.00 64 1006.5
20260902040304 56 246 0.0 0.0 0.00 0.00 0.00 64 1006.6
20260902035804 56 246 0.0 0.0 0.00 0.00 0.00 63 1006.6
20260902035305 56 246 2.0 5.0 0.00 0.00 0.00 62 1006.7
20260902034805 57 222 1.0 3.0 0.00 0.00 0.00 62 1006.7
20260902034305 57 230 2.0 3.0 0.00 0.00 0.00 62 1006.8
20260902033804 57 222 3.0 5.0 0.00 0.00 0.00 61 1006.8
20260902033304 57 212 3.0 5.0 0.00 0.00 0.00 61 1006.7
20260902032805 57 219 3.0 5.0 0.00 0.00 0.00 61 1006.6
20260902032306 57 212 2.0 5.0 0.00 0.00 0.00 61 1006.6
20260902031804 57 215 2.0 5.0 0.00 0.00 0.00 61 1006.5
20260902031305 57 231 1.0 3.0 0.00 0.00 0.00 61 1006.5
20260902030804 57 234 0.0 0.0 0.00 0.00 0.00 61 1006.5
20260902030304 57 181 0.0 1.0 0.00 0.00 0.00 61 1006.3
20260902025804 58 178 0.0 2.0 0.00 0.00 0.00 60 1006.3
20260902025306 58 221 0.0 2.0 0.00 0.00 0.00 61 1006.3
20260902024804 58 208 2.0 3.0 0.00 0.00 0.00 61 1006.3
20260902024304 58 255 1.0 2.0 0.00 0.00 0.00 61 1006.3
20260902023804 58 250 0.0 1.0 0.00 0.00 0.00 61 1006.5
20260902023305 58 270 0.0 1.0 0.00 0.00 0.00 61 1006.5
20260902022804 58 281 0.0 2.0 0.00 0.00 0.00 61 1006.5
20260902022306 57 274 1.0 3.0 0.00 0.00 0.00 61 1006.5
20260902021805 57 261 0.0 1.0 0.00 0.00 0.00 61 1006.6
20260902021304 57 296 1.0 3.0 0.00 0.00 0.00 61 1006.6
20260902020804 58 313 1.0 3.0 0.00 0.00 0.00 61 1006.6
20260902020304 58 301 2.0 6.0 0.00 0.00 0.00 61 1006.6
20260902015804 58 285 1.0 3.0 0.00 0.00 0.00 61 1006.6
20260902015306 57 237 2.0 5.0 0.00 0.00 0.00 61 1006.6
20260902014805 58 213 5.0 6.0 0.00 0.00 0.00 61 1006.7
20260902014304 58 235 3.0 7.0 0.00 0.00 0.00 61 1006.6
20260902013804 58 235 1.0 3.0 0.00 0.00 0.00 60 1006.6
20260902013304 57 239 2.0 3.0 0.00 0.00 0.00 60 1006.6
20260902012814 57 288 1.0 2.0 0.00 0.00 0.00 60 1006.6
20260902012309 57 259 1.0 5.0 0.00 0.00 0.00 60 1006.6
20260902011804 57 288 2.0 5.0 0.00 0.00 0.00 60 1006.6
20260902011304 57 248 1.0 5.0 0.00 0.00 0.00 60 1006.6
20260902010804 57 355 1.0 2.0 0.00 0.00 0.00 60 1006.6
20260902010304 57 257 1.0 6.0 0.00 0.00 0.00 60 1006.6
20260902005804 57 334 5.0 9.0 0.00 0.00 0.00 60 1006.7
20260902005306 57 322 2.0 5.0 0.00 0.00 0.00 60 1006.7
20260902004804 57 327 1.0 5.0 0.00 0.00 0.00 60 1006.7
20260902004304 56 253 0.0 1.0 0.00 0.00 0.00 60 1006.7
20260902003804 56 201 1.0 5.0 0.00 0.00 0.00 59 1006.7
20260902003304 56 64 1.0 2.0 0.00 0.00 0.00 59 1006.8
20260902002805 56 79 0.0 5.0 0.00 0.00 0.00 60 1006.8
20260902002306 56 35 4.0 6.0 0.00 0.00 0.00 59 1006.8
20260902001805 56 345 2.0 5.0 0.00 0.00 0.00 61 1006.8
20260902001304 56 326 1.0 5.0 0.00 0.00 0.00 62 1006.8
20260902000804 55 327 4.0 7.0 0.00 0.00 0.00 62 1006.8
20260902000304 55 309 2.0 6.0 0.00 0.00 0.00 61 1006.8
20260901235804 55 308 3.0 6.0 0.00 0.00 0.00 61 1006.8
20260901235307 55 155 2.0 5.0 0.00 0.00 0.00 61 1006.9
20260901234804 55 277 1.0 5.0 0.00 0.00 0.00 61 1006.9
20260901234304 55 304 2.0 6.0 0.00 0.00 0.00 62 1006.8
20260901233804 55 293 1.0 2.0 0.00 0.00 0.00 62 1006.8
20260901233304 55 280 1.0 7.0 0.00 0.00 0.00 62 1006.9
20260901232803 54 342 1.0 6.0 0.00 0.00 0.00 62 1006.9
20260901232306 54 9 3.0 8.0 0.00 0.00 0.00 62 1006.9
20260901231804 54 314 4.0 6.0 0.00 0.00 0.00 62 1006.9
20260901231304 54 342 2.0 6.0 0.00 0.00 0.00 62 1006.9
20260901230804 54 176 2.0 3.0 0.00 0.00 0.00 62 1006.9
20260901230304 54 301 1.0 3.0 0.00 0.00 0.00 62 1007.0
20260901225804 54 304 0.0 3.0 0.00 0.00 0.00 61 1007.0
20260901225306 54 320 3.0 7.0 0.00 0.00 0.00 61 1007.1
20260901224804 54 23 3.0 6.0 0.00 0.00 0.00 62 1007.1
20260901224304 53 9 3.0 7.0 0.00 0.00 0.00 62 1007.1
20260901223804 53 355 2.0 6.0 0.00 0.00 0.00 64 1007.2
20260901223304 53 327 2.0 7.0 0.00 0.00 0.00 65 1007.3
20260901222804 53 297 2.0 6.0 0.00 0.00 0.00 65 1007.4
20260901222306 52 201 1.0 2.0 0.00 0.00 0.00 65 1007.3
20260901221804 52 353 1.0 3.0 0.00 0.00 0.00 65 1007.3
20260901221304 52 227 0.0 5.0 0.00 0.00 0.00 66 1007.3
20260901220804 52 347 1.0 5.0 0.00 0.00 0.00 66 1007.4
20260901220304 52 275 0.0 5.0 0.00 0.00 0.00 66 1007.5
20260901215306 52 224 1.0 3.0 0.00 0.00 0.00 67 1007.5
20260901214804 52 239 1.0 3.0 0.00 0.00 0.00 67 1007.6
20260901214304 51 190 2.0 3.0 0.00 0.00 0.00 67 1007.6
20260901213804 51 343 2.0 5.0 0.00 0.00 0.00 67 1007.7
20260901213304 51 281 1.0 5.0 0.00 0.00 0.00 67 1007.7
20260901212804 51 208 1.0 3.0 0.00 0.00 0.00 68 1007.7
20260901212306 51 289 1.0 5.0 0.00 0.00 0.00 68 1007.8
20260901211804 51 14 1.0 3.0 0.00 0.00 0.00 68 1007.7
20260901211304 51 1 2.0 5.0 0.00 0.00 0.00 68 1007.7
20260901210804 51 333 1.0 3.0 0.00 0.00 0.00 68 1007.7
20260901210304 51 281 1.0 2.0 0.00 0.00 0.00 69 1007.7
20260901205804 51 338 2.0 7.0 0.00 0.00 0.00 69 1007.7
20260901205306 50 307 1.0 7.0 0.00 0.00 0.00 69 1007.8
20260901204804 50 12 3.0 6.0 0.00 0.00 0.00 69 1007.7
20260901204304 50 10 0.0 2.0 0.00 0.00 0.00 69 1007.7
20260901203804 50 312 1.0 3.0 0.00 0.01 0.00 70 1007.7
20260901203304 50 245 2.0 5.0 0.00 0.01 0.00 70 1007.7
20260901202804 50 281 1.0 3.0 0.00 0.01 0.00 70 1007.7